• In Germany
  • List of Countries
  • For 7 days
  • Water Temperature
  • Satellite Maps
  • Weather Map
  • Weather Widgets
  • user-avatar
    Login

    Hourly Weather Brest

    Today, 26 July, Wednesday

    Time Temperature Precipitation Wind Pressure Humidity
    00:00 +18°C° 0.2 mm 4 mps 737 mmHg 95%
    01:00 +17°C° 0.2 mm 3 mps 737 mmHg 95%
    02:00 +16°C° 0.2 mm 3 mps 737 mmHg 95%
    03:00 +16°C° 0.5 mm 3 mps 737 mmHg 95%
    04:00 +15°C° 0.5 mm 4 mps 737 mmHg 94%
    05:00 +15°C° 0.5 mm 4 mps 738 mmHg 94%
    06:00 +15°C° 0.4 mm 4 mps 738 mmHg 93%
    07:00 +15°C° 0.4 mm 4 mps 738 mmHg 93%
    08:00 +16°C° 0 mm 5 mps 737 mmHg 90%
    09:00 +17°C° 0.1 mm 5 mps 738 mmHg 86%
    10:00 +19°C° 0.1 mm 5 mps 738 mmHg 82%
    11:00 +20°C° 0.1 mm 5 mps 739 mmHg 78%
    12:00 +20°C° 0.1 mm 4 mps 739 mmHg 74%
    13:00 +21°C° 0.1 mm 4 mps 739 mmHg 70%
    14:00 +22°C° 0.1 mm 4 mps 739 mmHg 66%
    15:00 +22°C° 0 mm 4 mps 740 mmHg 65%
    16:00 +22°C° 0 mm 4 mps 740 mmHg 63%
    17:00 +23°C° 0 mm 4 mps 740 mmHg 62%
    18:00 +22°C° 0 mm 3 mps 740 mmHg 67%
    19:00 +20°C° 0 mm 2 mps 740 mmHg 71%
    20:00 +20°C° 0 mm 1 mps 740 mmHg 76%
    21:00 +18°C° 0 mm 2 mps 740 mmHg 77%
    22:00 +18°C° 0 mm 2 mps 741 mmHg 77%
    23:00 +17°C° 0 mm 2 mps 741 mmHg 78%

    Tomorrow, 27 July, Thursday

    Time Temperature Precipitation Wind Pressure Humidity
    00:00 +16°C° 0 mm 2 mps 741 mmHg 79%
    01:00 +16°C° 0 mm 2 mps 741 mmHg 80%
    02:00 +16°C° 0 mm 2 mps 741 mmHg 81%
    03:00 +15°C° 0 mm 2 mps 741 mmHg 82%
    04:00 +15°C° 0 mm 2 mps 741 mmHg 84%
    05:00 +15°C° 0 mm 2 mps 742 mmHg 85%
    06:00 +16°C° 0 mm 2 mps 742 mmHg 80%
    07:00 +18°C° 0 mm 2 mps 742 mmHg 76%
    08:00 +20°C° 0 mm 1 mps 742 mmHg 71%
    09:00 +21°C° 0 mm 2 mps 742 mmHg 66%
    10:00 +23°C° 0 mm 2 mps 742 mmHg 62%
    11:00 +25°C° 0 mm 3 mps 743 mmHg 58%
    12:00 +25°C° 0 mm 3 mps 742 mmHg 56%
    13:00 +26°C° 0 mm 3 mps 742 mmHg 54%
    14:00 +26°C° 0 mm 3 mps 742 mmHg 53%
    15:00 +26°C° 0 mm 3 mps 742 mmHg 54%
    16:00 +26°C° 0 mm 3 mps 742 mmHg 55%
    17:00 +26°C° 0 mm 3 mps 742 mmHg 56%
    18:00 +24°C° 0.1 mm 3 mps 742 mmHg 62%
    19:00 +23°C° 0.1 mm 2 mps 742 mmHg 68%
    20:00 +20°C° 0.1 mm 2 mps 742 mmHg 75%
    21:00 +19°C° 0 mm 2 mps 742 mmHg 78%
    22:00 +18°C° 0 mm 2 mps 742 mmHg 82%
    23:00 +17°C° 0 mm 2 mps 743 mmHg 86%

    Day after tomorrow, 28 July, Friday

    Time Temperature Precipitation Wind Pressure Humidity
    00:00 +17°C° 0 mm 2 mps 743 mmHg 89%
    01:00 +16°C° 0 mm 2 mps 743 mmHg 92%
    02:00 +15°C° 0 mm 2 mps 743 mmHg 95%
    03:00 +15°C° 0 mm 2 mps 743 mmHg 96%
    04:00 +15°C° 0 mm 2 mps 743 mmHg 97%
    05:00 +14°C° 0 mm 2 mps 743 mmHg 98%
    06:00 +14°C° 0 mm 3 mps 743 mmHg 94%
    07:00 +16°C° 0 mm 3 mps 744 mmHg 90%
    08:00 +17°C° 0 mm 4 mps 744 mmHg 86%
    09:00 +18°C° 0 mm 4 mps 744 mmHg 83%
    10:00 +18°C° 0 mm 3 mps 744 mmHg 80%
    11:00 +19°C° 0 mm 3 mps 744 mmHg 78%
    12:00 +19°C° 0.1 mm 4 mps 744 mmHg 76%
    13:00 +20°C° 0.1 mm 4 mps 744 mmHg 75%
    14:00 +20°C° 0.1 mm 4 mps 744 mmHg 74%
    15:00 +21°C° 0.1 mm 4 mps 745 mmHg 72%
    16:00 +22°C° 0.1 mm 4 mps 745 mmHg 70%
    17:00 +22°C° 0.1 mm 4 mps 745 mmHg 68%
    18:00 +21°C° 0.3 mm 3 mps 745 mmHg 74%
    19:00 +20°C° 0.3 mm 3 mps 745 mmHg 79%
    20:00 +19°C° 0.3 mm 2 mps 745 mmHg 85%
    21:00 +18°C° 0.9 mm 2 mps 745 mmHg 87%
    22:00 +17°C° 0.9 mm 2 mps 746 mmHg 89%
    23:00 +17°C° 0.9 mm 2 mps 746 mmHg 91%

    29 July, Saturday

    Time Temperature Precipitation Wind Pressure Humidity
    00:00 +16°C° 0 mm 2 mps 746 mmHg 91%
    01:00 +16°C° 0 mm 2 mps 746 mmHg 92%
    02:00 +16°C° 0 mm 2 mps 746 mmHg 93%
    03:00 +15°C° 0 mm 2 mps 747 mmHg 93%
    04:00 +15°C° 0 mm 2 mps 747 mmHg 94%
    05:00 +14°C° 0 mm 2 mps 747 mmHg 95%
    06:00 +16°C° 0 mm 3 mps 748 mmHg 91%
    07:00 +17°C° 0 mm 3 mps 748 mmHg 87%
    08:00 +19°C° 0 mm 3 mps 748 mmHg 83%
    09:00 +20°C° 0 mm 3 mps 749 mmHg 76%
    10:00 +21°C° 0 mm 4 mps 749 mmHg 68%
    11:00 +23°C° 0 mm 4 mps 749 mmHg 61%
    12:00 +23°C° 0.1 mm 4 mps 749 mmHg 59%
    13:00 +25°C° 0.1 mm 5 mps 749 mmHg 57%
    14:00 +25°C° 0.1 mm 5 mps 749 mmHg 56%
    15:00 +25°C° 0 mm 5 mps 749 mmHg 57%
    16:00 +25°C° 0 mm 5 mps 750 mmHg 59%
    17:00 +23°C° 0 mm 4 mps 750 mmHg 60%
    18:00 +22°C° 0 mm 4 mps 750 mmHg 66%
    19:00 +21°C° 0 mm 3 mps 750 mmHg 71%
    20:00 +19°C° 0 mm 2 mps 750 mmHg 76%
    21:00 +19°C° 0 mm 2 mps 750 mmHg 77%
    22:00 +18°C° 0 mm 2 mps 751 mmHg 79%
    23:00 +18°C° 0 mm 1 mps 751 mmHg 80%

    30 July, Sunday

    Time Temperature Precipitation Wind Pressure Humidity
    00:00 +18°C° 0 mm 1 mps 751 mmHg 80%
    01:00 +17°C° 0 mm 2 mps 751 mmHg 80%
    02:00 +17°C° 0 mm 2 mps 751 mmHg 80%
    03:00 +17°C° 0 mm 2 mps 751 mmHg 80%
    04:00 +16°C° 0 mm 2 mps 751 mmHg 80%
    05:00 +16°C° 0 mm 2 mps 751 mmHg 80%
    06:00 +18°C° 0 mm 2 mps 751 mmHg 77%
    07:00 +19°C° 0 mm 3 mps 751 mmHg 75%
    08:00 +21°C° 0 mm 3 mps 751 mmHg 72%
    09:00 +24°C° 0 mm 3 mps 751 mmHg 67%
    10:00 +25°C° 0 mm 3 mps 751 mmHg 62%
    11:00 +27°C° 0 mm 3 mps 751 mmHg 57%
    12:00 +28°C° 0 mm 3 mps 751 mmHg 55%
    13:00 +29°C° 0 mm 3 mps 751 mmHg 54%
    14:00 +29°C° 0 mm 3 mps 750 mmHg 53%
    15:00 +29°C° 0 mm 3 mps 750 mmHg 56%
    16:00 +29°C° 0 mm 2 mps 750 mmHg 60%
    17:00 +29°C° 0 mm 2 mps 750 mmHg 63%
    18:00 +27°C° 0 mm 2 mps 749 mmHg 67%
    19:00 +26°C° 0 mm 2 mps 749 mmHg 71%
    20:00 +25°C° 0 mm 2 mps 749 mmHg 75%
    21:00 +24°C° 2.5 mm 2 mps 749 mmHg 80%
    22:00 +23°C° 2.5 mm 2 mps 749 mmHg 86%
    23:00 +21°C° 2.5 mm 2 mps 749 mmHg 92%

    31 July, Monday

    Time Temperature Precipitation Wind Pressure Humidity
    00:00 +21°C° 1.1 mm 3 mps 749 mmHg 92%
    01:00 +21°C° 1.1 mm 3 mps 749 mmHg 92%
    02:00 +21°C° 1.1 mm 3 mps 749 mmHg 92%
    03:00 +20°C° 0 mm 3 mps 749 mmHg 93%
    04:00 +20°C° 0 mm 3 mps 749 mmHg 93%
    05:00 +20°C° 0 mm 2 mps 749 mmHg 93%
    06:00 +21°C° 0 mm 2 mps 749 mmHg 90%
    07:00 +23°C° 0 mm 2 mps 749 mmHg 87%
    08:00 +24°C° 0 mm 2 mps 749 mmHg 83%
    09:00 +26°C° 0 mm 3 mps 750 mmHg 76%
    10:00 +28°C° 0 mm 3 mps 750 mmHg 69%
    11:00 +30°C° 0 mm 3 mps 750 mmHg 63%
    12:00 +31°C° 0 mm 3 mps 751 mmHg 60%
    13:00 +32°C° 0 mm 4 mps 751 mmHg 57%
    14:00 +33°C° 0 mm 4 mps 751 mmHg 54%
    15:00 +33°C° 0 mm 4 mps 751 mmHg 54%
    16:00 +33°C° 0 mm 3 mps 751 mmHg 55%
    17:00 +33°C° 0 mm 3 mps 751 mmHg 56%
    18:00 +31°C° 0 mm 2 mps 751 mmHg 60%
    19:00 +29°C° 0 mm 2 mps 751 mmHg 65%
    20:00 +27°C° 0 mm 1 mps 751 mmHg 70%
    21:00 +26°C° 0 mm 1 mps 752 mmHg 71%
    22:00 +26°C° 0 mm 1 mps 752 mmHg 72%
    23:00 +25°C° 0 mm 1 mps 753 mmHg 73%
    Show more